Location: *
(51.1248°S, 108.4023°W)
Time: 09:26:34
(UTC+00:00)

Envisat - Pass Details

Date: 02 October 2021
Orbit: 764 x 766 km, 98.2° (Epoch: 27 October)

Event Time Altitude Azimuth Distance (km) Brightness Sun altitude
Rises 10:05:21 0° 52° (NE) 3,241 6.4 -22.8°
Reaches altitude 10° 10:07:57 10° 64° (ENE) 2,322 5.8 -22.5°
Maximum altitude 10:12:11 27° 120° (ESE) 1,469 5.2 -21.9°
Drops below altitude 10° 10:16:27 10° 175° (S) 2,345 6.0 -21.4°
Sets 10:19:04 0° 187° (S) 3,279 6.7 -21.1°
